[[{"header":{"parameterUnit":"m.s-1","parameterCategory":1,"la1":30.2992,"la2":30.254,"lo1":-89.0895,"lo2":-89.0443,"dy":0.0025,"dx":0.0025,"nx":19,"ny":19,"refTime":"2026-05-20T09:00:00:Z","depth":0,"parameterNumber":2,"parameterNumberName":"U-component_of_WINDS"},"data":[0,0,0,-2.2851,-2.2853,-2.2988,-2.2989,-2.3158,-2.316,0,0,0,0,0,0,0,0,0,0,0,-2.2808,-2.2809,-2.285,-2.2854,-2.2988,-2.2989,-2.3158,-2.316,0,0,0,0,0,0,0,0,0,0,0,-2.2808,-2.2809,-2.281,-2.2854,-2.2988,-2.2989,-2.3158,-2.3057,0,0,0,0,0,0,0,0,0,0,-2.2927,-2.2885,-2.2809,-2.281,-2.2855,-2.2988,-2.2989,-2.3052,-2.3064,-2.3096,0,-2.3123,0,-2.3144,-2.3171,-2.3172,0,0,0,-2.2856,-2.2876,-2.2914,-2.281,-2.2856,-2.2988,-2.2928,-2.3059,-2.3071,-2.311,-2.3126,-2.3132,-2.3147,-2.3172,-2.3173,-2.3351,-2.3352,0,0,-2.2848,-2.2831,-2.2906,-2.2922,-2.2901,-2.2924,-2.2932,-2.3066,-2.3082,-2.3126,-2.3136,-2.315,-2.3173,-2.3174,-2.3351,-2.3352,0,0,0,-2.2825,-2.2826,-2.2861,-2.2915,-2.294,-2.2928,-2.2937,-2.3076,-2.3089,-2.3138,-2.3152,-2.3174,-2.3176,-2.335,-2.3351,-2.3371,0,0,0,-2.2821,-2.2813,-2.2858,-2.2849,-2.2937,-2.3009,-2.2944,-2.308,-2.3095,-2.3151,-2.3174,-2.3178,-2.3349,-2.3351,-2.3368,-2.3383,0,0,0,-2.28,-2.281,-2.2829,-2.2848,-2.2905,-2.3008,-2.3028,-2.3083,-2.3104,-2.3172,-2.3178,-2.3349,-2.335,-2.3366,-2.338,-2.3425,0,0,0,-2.2773,-2.2844,-2.2829,-2.2914,-2.2904,-2.3019,-2.3028,-2.3114,-2.3175,-2.3175,-2.3349,-2.3351,-2.3366,-2.3378,-2.3423,-2.346,-2.3474,0,0,-2.2853,-2.2853,-2.2905,-2.2895,-2.3008,-2.2999,-2.3116,-2.3188,-2.3211,-2.3303,-2.3308,-2.3369,-2.3379,-2.3425,-2.3558,-2.3569,0,0,0,-2.2925,-2.2961,-2.2995,-2.3052,-2.3108,-2.3158,-2.3214,-2.3241,-2.3321,-2.3255,-2.3399,-2.3405,-2.3432,-2.3451,-2.346,-2.3485,-2.3359,-2.3359,-2.3358,-2.3013,-2.3038,-2.3125,-2.3166,-2.3222,-2.3279,-2.3326,-2.3372,-2.3381,-2.3415,-2.3442,-2.352,-2.3541,-2.3548,-2.3574,-2.3464,-2.3464,-2.3464,-2.3464,-2.3133,-2.3189,-2.32,-2.3288,-2.3314,-2.3389,-2.3448,-2.3452,-2.3526,-2.3501,-2.3526,-2.3497,-2.3559,-2.3583,-2.3466,-2.3466,-2.3466,-2.3465,-2.3465,-2.3194,-2.3225,-2.3257,-2.3342,-2.3405,-2.3445,-2.3515,-2.3537,-2.3558,-2.3583,-2.3614,-2.3614,-2.3617,-2.3596,-2.3597,-2.3597,-2.3597,-2.3597,-2.3598,-2.3244,-2.3279,-2.3336,-2.3402,-2.3442,-2.3497,-2.3556,-2.3596,-2.3646,-2.3656,-2.3657,-2.3663,-2.3561,-2.3535,-2.3602,-2.3601,-2.3601,-2.36,-2.36,-2.3357,-2.3335,-2.3422,-2.3461,-2.3542,-2.3604,-2.3631,-2.371,-2.3747,-2.3781,-2.3782,-2.3703,-2.3705,-2.3698,-2.3676,-2.3776,-2.3776,-2.3776,-2.3776,-2.3408,-2.3411,-2.3505,-2.3567,-2.3631,-2.3664,-2.3763,-2.381,-2.3856,-2.388,-2.3869,-2.3842,-2.3834,-2.3841,-2.383,-2.3811,-2.3942,-2.3943,-2.3943,-2.3478,-2.3488,-2.3568,-2.3611,-2.3676,-2.3732,-2.3825,-2.3897,-2.3945,-2.395,-2.39,-2.3893,-2.385,-2.3835,-2.3838,-2.3822,-2.3786,0,0]},{"header":{"parameterUnit":"m.s-1","parameterCategory":1,"la1":30.2992,"la2":30.254,"lo1":-89.0895,"lo2":-89.0443,"dy":0.0025,"dx":0.0025,"nx":19,"ny":19,"refTime":"2026-05-20T09:00:00:Z","depth":0,"parameterNumber":3,"parameterNumberName":"V-component_of_WINDS"},"data":[0,0,0,2.6001,2.6001,2.6012,2.6012,2.6034,2.6034,0,0,0,0,0,0,0,0,0,0,0,2.6003,2.6003,2.6001,2.6001,2.6012,2.6012,2.6034,2.6034,0,0,0,0,0,0,0,0,0,0,0,2.6003,2.6003,2.6004,2.6001,2.6012,2.6012,2.6034,2.6023,0,0,0,0,0,0,0,0,0,0,2.6011,2.6018,2.6003,2.6004,2.6001,2.6012,2.6012,2.6022,2.6023,2.6033,0,2.6042,0,2.6039,2.6036,2.6036,0,0,0,2.5997,2.6017,2.6015,2.6004,2.6002,2.6012,2.6006,2.6023,2.6024,2.6034,2.6043,2.6043,2.6039,2.6036,2.6036,2.6103,2.6104,0,0,2.5997,2.6008,2.6014,2.6016,2.6015,2.6006,2.6006,2.6023,2.6033,2.6043,2.6044,2.6039,2.6036,2.6037,2.6103,2.6103,0,0,0,2.5998,2.6008,2.6005,2.6016,2.6017,2.6006,2.6007,2.6032,2.603,2.6044,2.604,2.6037,2.6037,2.6102,2.6103,2.6138,0,0,0,2.5997,2.6008,2.6005,2.6012,2.6017,2.6025,2.6016,2.6029,2.6031,2.6039,2.6037,2.6037,2.6101,2.6102,2.6136,2.6152,0,0,0,2.6001,2.6008,2.6012,2.6012,2.6017,2.6024,2.6023,2.6029,2.6029,2.6036,2.6037,2.6101,2.6102,2.6134,2.6149,2.6172,0,0,0,2.6007,2.6043,2.6013,2.6051,2.6017,2.6046,2.6023,2.6044,2.6055,2.6037,2.6102,2.6103,2.6133,2.6147,2.617,2.6194,2.6205,0,0,2.6058,2.6049,2.6071,2.6044,2.6081,2.6044,2.6085,2.6085,2.6075,2.6094,2.6096,2.6136,2.6149,2.6172,2.6263,2.6272,0,0,0,2.6091,2.6106,2.6114,2.6125,2.6125,2.6127,2.6118,2.6118,2.6134,2.6088,2.6151,2.6158,2.6171,2.6182,2.6189,2.62,2.6108,2.6108,2.6108,2.6179,2.6165,2.6199,2.6187,2.6197,2.6189,2.6196,2.6194,2.6177,2.6192,2.6197,2.6254,2.6267,2.6273,2.6284,2.6209,2.6209,2.6209,2.621,2.6252,2.6271,2.6248,2.6273,2.6258,2.6279,2.6271,2.6259,2.6276,2.6249,2.626,2.6232,2.6283,2.6292,2.6212,2.6212,2.6211,2.6211,2.6211,2.6307,2.6314,2.6313,2.6326,2.6339,2.6325,2.6342,2.6328,2.6315,2.6326,2.633,2.6329,2.6326,2.6329,2.6329,2.6329,2.6329,2.6329,2.633,2.6364,2.6362,2.6378,2.6382,2.6386,2.6391,2.6383,2.6387,2.6388,2.6376,2.6376,2.6358,2.6291,2.6274,2.6333,2.6332,2.6332,2.6331,2.6331,2.6442,2.6422,2.6447,2.6452,2.6455,2.6467,2.6449,2.6459,2.6461,2.647,2.6449,2.6402,2.6392,2.6386,2.6372,2.6452,2.6452,2.6452,2.6452,2.6488,2.6482,2.6504,2.6513,2.6519,2.6506,2.6534,2.6528,2.6519,2.6519,2.6505,2.6485,2.648,2.6473,2.6465,2.6451,2.6551,2.6551,2.6551,2.6535,2.6528,2.6555,2.6546,2.6547,2.6548,2.6574,2.6585,2.657,2.6554,2.6518,2.6514,2.6482,2.6472,2.6455,2.6444,2.6418,0,0]}]]